Location: Carnières
(50.1682°N, 3.3474°E)
Time: 04:08:12
(UTC+00:00)

MOZ.5/SAFIR/RUBIN 5/SL-8 - Pass Details

Date: 09 August 2024
Orbit: 671 x 698 km, 98.3° (Epoch: 08 September)

Event Time Altitude Azimuth Distance (km) Brightness Sun altitude
Exits shadow 01:25:05 50° 187° (S) 876 3.9 -21.0°
Maximum altitude 01:26:14 74° 257° (WSW) 724 3.7 -20.9°
Drops below altitude 10° 01:30:59 10° 342° (NNW) 2,165 7.0 -20.6°
Sets 01:33:16 0° 345° (NNW) 3,090 7.9 -20.4°
